User: anonymous   Login
Location: ???????
(55.8930°N, 38.0586°E)
Time: 03:00:44
(UTC+00:00)
Language:

ATLAS 2AS CENTAUR R/B - Orbit

View from above orbital plane
View from above orbital plane
View from above satellite
View from above satellite

Ground track
Ground track

The orbit data is extracted from the following two-line orbital elements,

1 28096U 03054B   24174.62048673 -.00000024  00000-0  11040-3 0  9997
2 28096  63.6797  64.3451 0117481 169.0032 191.3605 13.40975843  5252
Epoch (UTC): 22 June 2024 14:53:30
Eccentricity: 0.0117481
inclination: 63.6797°
perigee height: 1018 km
apogee height: 1193 km
right ascension of ascending node: 64.3451°
argument of perigee: 169.0032°
revolutions per day: 13.40975843
mean anomaly at epoch: 191.3605°
orbit number at epoch: 525

The dashed part of the orbit path shows where the satellite is in the earth's shadow,  

DLR